Hourly Weather Gogolow

Today, 12 May, Wednesday

Time Temperature Precipitation Wind Pressure Humidity
00:00 +18°C° 0 mm 4 mps 732 mmHg 75%
01:00 +18°C° 0 mm 4 mps 732 mmHg 75%
02:00 +17°C° 0 mm 4 mps 732 mmHg 79%
03:00 +17°C° 0 mm 3 mps 733 mmHg 83%
04:00 +16°C° 0 mm 3 mps 733 mmHg 88%
05:00 +17°C° 0.1 mm 2 mps 733 mmHg 87%
06:00 +18°C° 0.1 mm 2 mps 733 mmHg 86%
07:00 +18°C° 0 mm 2 mps 733 mmHg 86%
08:00 +19°C° 0.1 mm 2 mps 734 mmHg 84%
09:00 +19°C° 0.1 mm 2 mps 734 mmHg 82%
10:00 +20°C° 0.1 mm 3 mps 734 mmHg 81%
11:00 +20°C° 0.4 mm 3 mps 734 mmHg 83%
12:00 +19°C° 0.4 mm 3 mps 734 mmHg 85%
13:00 +19°C° 0.4 mm 3 mps 733 mmHg 87%
14:00 +19°C° 0.8 mm 3 mps 733 mmHg 87%
15:00 +19°C° 0.8 mm 3 mps 733 mmHg 87%
16:00 +19°C° 0.8 mm 3 mps 732 mmHg 87%
17:00 +18°C° 2.5 mm 2 mps 732 mmHg 90%
18:00 +17°C° 2.5 mm 2 mps 732 mmHg 93%
19:00 +16°C° 2.5 mm 2 mps 731 mmHg 96%
20:00 +16°C° 1.5 mm 1 mps 731 mmHg 96%
21:00 +15°C° 1.5 mm 1 mps 731 mmHg 95%
22:00 +15°C° 1.5 mm 1 mps 731 mmHg 95%
23:00 +14°C° 0 mm 1 mps 731 mmHg 95%

Tomorrow, 13 May, Thursday

Time Temperature Precipitation Wind Pressure Humidity
00:00 +14°C° 0 mm 1 mps 731 mmHg 95%
01:00 +14°C° 0 mm 1 mps 730 mmHg 95%
02:00 +14°C° 0.1 mm 1 mps 730 mmHg 95%
03:00 +14°C° 0.1 mm 1 mps 730 mmHg 96%
04:00 +13°C° 0.1 mm 0 mps 730 mmHg 96%
05:00 +14°C° 0.2 mm 1 mps 730 mmHg 96%
06:00 +14°C° 0.2 mm 1 mps 729 mmHg 97%
07:00 +14°C° 0.2 mm 1 mps 729 mmHg 97%
08:00 +14°C° 0.5 mm 1 mps 729 mmHg 97%
09:00 +14°C° 0.5 mm 1 mps 729 mmHg 96%
10:00 +14°C° 0.5 mm 2 mps 729 mmHg 96%
11:00 +13°C° 0.5 mm 2 mps 729 mmHg 96%
12:00 +12°C° 0.5 mm 3 mps 729 mmHg 95%
13:00 +12°C° 0.5 mm 3 mps 729 mmHg 95%
14:00 +12°C° 0.3 mm 3 mps 729 mmHg 94%
15:00 +11°C° 0.3 mm 4 mps 729 mmHg 94%
16:00 +11°C° 0.3 mm 4 mps 729 mmHg 93%
17:00 +11°C° 0.2 mm 4 mps 729 mmHg 93%
18:00 +11°C° 0.2 mm 4 mps 729 mmHg 93%
19:00 +10°C° 0.2 mm 4 mps 730 mmHg 92%
20:00 +10°C° 0.2 mm 4 mps 730 mmHg 92%
21:00 +10°C° 0.2 mm 4 mps 730 mmHg 92%
22:00 +9°C° 0.2 mm 5 mps 730 mmHg 92%
23:00 +9°C° 0.3 mm 5 mps 730 mmHg 92%

Day after tomorrow, 14 May, Friday

Time Temperature Precipitation Wind Pressure Humidity
00:00 +8°C° 0.3 mm 4 mps 730 mmHg 92%
01:00 +8°C° 0.3 mm 4 mps 731 mmHg 92%
02:00 +8°C° 0.3 mm 4 mps 731 mmHg 92%
03:00 +8°C° 0.3 mm 4 mps 731 mmHg 91%
04:00 +8°C° 0.3 mm 4 mps 731 mmHg 91%
05:00 +8°C° 0.1 mm 5 mps 731 mmHg 88%
06:00 +9°C° 0.1 mm 5 mps 732 mmHg 86%
07:00 +9°C° 0.1 mm 5 mps 732 mmHg 84%
08:00 +10°C° 0 mm 5 mps 732 mmHg 78%
09:00 +12°C° 0 mm 5 mps 732 mmHg 73%
10:00 +13°C° 0 mm 6 mps 733 mmHg 67%
11:00 +14°C° 0.1 mm 6 mps 733 mmHg 67%
12:00 +14°C° 0.1 mm 5 mps 733 mmHg 66%
13:00 +15°C° 0.1 mm 5 mps 733 mmHg 65%
14:00 +15°C° 0.1 mm 5 mps 733 mmHg 67%
15:00 +15°C° 0.1 mm 4 mps 733 mmHg 68%
16:00 +15°C° 0.1 mm 4 mps 733 mmHg 70%
17:00 +14°C° 0.1 mm 3 mps 733 mmHg 74%
18:00 +14°C° 0.1 mm 2 mps 734 mmHg 79%
19:00 +13°C° 0.1 mm 1 mps 734 mmHg 84%
20:00 +12°C° 0 mm 1 mps 734 mmHg 86%
21:00 +11°C° 0 mm 1 mps 734 mmHg 88%
22:00 +11°C° 0 mm 1 mps 735 mmHg 89%
23:00 +10°C° 0 mm 1 mps 735 mmHg 90%

15 May, Saturday

Time Temperature Precipitation Wind Pressure Humidity
00:00 +10°C° 0 mm 1 mps 735 mmHg 91%
01:00 +9°C° 0 mm 1 mps 735 mmHg 91%
02:00 +9°C° 0 mm 1 mps 735 mmHg 91%
03:00 +8°C° 0 mm 1 mps 735 mmHg 91%
04:00 +8°C° 0 mm 1 mps 735 mmHg 92%
05:00 +9°C° 0 mm 0 mps 735 mmHg 88%
06:00 +10°C° 0 mm 0 mps 735 mmHg 85%
07:00 +12°C° 0 mm 0 mps 735 mmHg 82%
08:00 +13°C° 0.4 mm 0 mps 735 mmHg 78%
09:00 +15°C° 0.4 mm 1 mps 735 mmHg 75%
10:00 +16°C° 0.4 mm 1 mps 735 mmHg 71%
11:00 +18°C° 0.7 mm 1 mps 735 mmHg 70%
12:00 +18°C° 0.7 mm 1 mps 735 mmHg 69%
13:00 +18°C° 0.7 mm 1 mps 735 mmHg 68%
14:00 +18°C° 0.7 mm 1 mps 735 mmHg 69%
15:00 +18°C° 0.7 mm 1 mps 734 mmHg 71%
16:00 +18°C° 0.7 mm 1 mps 734 mmHg 73%
17:00 +16°C° 0.9 mm 1 mps 734 mmHg 77%
18:00 +15°C° 0.9 mm 1 mps 734 mmHg 81%
19:00 +14°C° 0.9 mm 1 mps 734 mmHg 85%
20:00 +13°C° 0.5 mm 1 mps 734 mmHg 87%
21:00 +12°C° 0.5 mm 2 mps 734 mmHg 89%
22:00 +12°C° 0.5 mm 2 mps 734 mmHg 92%
23:00 +10°C° 0.1 mm 2 mps 735 mmHg 92%

16 May, Sunday

Time Temperature Precipitation Wind Pressure Humidity
00:00 +10°C° 0.1 mm 2 mps 735 mmHg 91%
01:00 +11°C° 0.1 mm 1 mps 735 mmHg 91%
02:00 +11°C° 0 mm 1 mps 735 mmHg 91%
03:00 +11°C° 0 mm 1 mps 735 mmHg 91%
04:00 +11°C° 0 mm 1 mps 735 mmHg 91%
05:00 +11°C° 0 mm 1 mps 735 mmHg 89%
06:00 +12°C° 0 mm 1 mps 735 mmHg 87%
07:00 +13°C° 0 mm 1 mps 735 mmHg 85%
08:00 +14°C° 0.1 mm 1 mps 735 mmHg 79%
09:00 +15°C° 0.1 mm 1 mps 735 mmHg 74%
10:00 +16°C° 0.1 mm 1 mps 735 mmHg 69%
11:00 +16°C° 0.6 mm 2 mps 735 mmHg 68%
12:00 +17°C° 0.6 mm 2 mps 735 mmHg 67%
13:00 +17°C° 0.6 mm 2 mps 735 mmHg 66%
14:00 +17°C° 0.4 mm 3 mps 734 mmHg 66%
15:00 +17°C° 0.4 mm 3 mps 734 mmHg 66%
16:00 +17°C° 0.4 mm 4 mps 734 mmHg 66%
17:00 +14°C° 0.2 mm 3 mps 734 mmHg 72%
18:00 +14°C° 0.2 mm 2 mps 734 mmHg 77%
19:00 +13°C° 0.2 mm 2 mps 734 mmHg 83%
20:00 +12°C° 0 mm 2 mps 735 mmHg 84%
21:00 +10°C° 0 mm 2 mps 735 mmHg 86%
22:00 +8°C° 0 mm 2 mps 735 mmHg 88%
23:00 +8°C° 0 mm 2 mps 735 mmHg 88%

17 May, Monday

Time Temperature Precipitation Wind Pressure Humidity
00:00 +7°C° 0 mm 2 mps 735 mmHg 89%
01:00 +7°C° 0 mm 2 mps 735 mmHg 89%
02:00 +7°C° 0 mm 2 mps 735 mmHg 90%
03:00 +6°C° 0 mm 2 mps 735 mmHg 90%
04:00 +6°C° 0 mm 2 mps 735 mmHg 91%
05:00 +8°C° 0 mm 2 mps 735 mmHg 87%
06:00 +9°C° 0 mm 3 mps 736 mmHg 82%
07:00 +11°C° 0 mm 3 mps 736 mmHg 78%
08:00 +12°C° 0.1 mm 3 mps 736 mmHg 72%
09:00 +13°C° 0.1 mm 3 mps 735 mmHg 67%
10:00 +15°C° 0.1 mm 4 mps 735 mmHg 62%
11:00 +15°C° 0.1 mm 4 mps 735 mmHg 60%
12:00 +17°C° 0.1 mm 3 mps 735 mmHg 58%
13:00 +17°C° 0.1 mm 3 mps 735 mmHg 56%
14:00 +17°C° 0.1 mm 3 mps 735 mmHg 57%
15:00 +17°C° 0.1 mm 4 mps 734 mmHg 59%
16:00 +17°C° 0.1 mm 4 mps 734 mmHg 60%
17:00 +16°C° 0.2 mm 3 mps 734 mmHg 68%
18:00 +13°C° 0.2 mm 3 mps 734 mmHg 76%
19:00 +13°C° 0.2 mm 2 mps 735 mmHg 84%
20:00 +12°C° 0.1 mm 2 mps 735 mmHg 86%
21:00 +10°C° 0.1 mm 2 mps 735 mmHg 88%
22:00 +9°C° 0.1 mm 2 mps 735 mmHg 91%
23:00 +9°C° 0 mm 2 mps 735 mmHg 91%
Show more